Regional Weather Roundup
Issued by NWS

Home | Current Version | Previous Version | Graphics & Text | Print | Product List | Glossary Off
Versions: 1 2 3 4 5 6 7 8 9 10 11 12 13 14 15 16 17 18 19 20 21 22 23 24 25 26 27 28 29 30 31 32 33 34 35 36 37 38 39 40 41 42 43 44 45 46 47 48 49 50

495
ASUS43 KLOT 251003
RWRIL

ILLINOIS REGIONAL WEATHER ROUNDUP
NATIONAL WEATHER SERVICE CHICAGO/ROMEOVILLE IL
400 AM CST SUN FEB 25 2018

NOTE: "FAIR" INDICATES FEW OR NO CLOUDS BELOW 12,000 FEET WITH NO
SIGNIFICANT WEATHER AND/OR OBSTRUCTIONS TO VISIBILITY.

* THESE STATIONS ARE NOT UNDER NWS QUALITY CONTROL. THEY ALSO MAY NOT
  REPORT WEATHER SUCH AS PRECIPITATION OR FOG.

ILZ001-002-007-009-015-016-024-251100-
NORTHWEST ILLINOIS

CITY           SKY/WX    TMP DP  RH WIND       PRES   REMARKS
MOLINE         CLOUDY    34  28  79 W24       29.77R WCI  21
STERLING*      CLOUDY    33  27  78 W25G35    29.73R WCI  20
SAVANNA*       CLOUDY    32  26  76 W17G25    29.73R WCI  21
$$

ILZ003-004-008-010-011-017-018-251100-
NORTH CENTRAL ILLINOIS

CITY           SKY/WX    TMP DP  RH WIND       PRES   REMARKS
ROCKFORD       CLOUDY    32  25  75 W22G30    29.69R WCI  19
FREEPORT*      CLOUDY    31  25  78 W25G37    29.70R WCI  17
ROCHELLE*      CLOUDY    32  28  83 W29G36    29.72R WCI  18
DE KALB*       CLOUDY    32  28  84 W21G30    29.69R WCI  20
PERU*          CLOUDY    33  27  77 W31G45    29.77R WCI  19
$$

ILZ005-006-012>014-019>023-251100-
NORTHEAST ILLINOIS

CITY           SKY/WX    TMP DP  RH WIND       PRES   REMARKS
CHICAGO-OHARE  CLOUDY    35  27  72 W24G38    29.65R WCI  23
CHICAGO-MIDWAY CLOUDY    36  29  75 W22G36    29.68R WCI  25
AURORA         CLOUDY    34  28  79 W29G35    29.71R WCI  20
LANSING*       CLOUDY    35  31  87 W25G33    29.71R WCI  22
JOLIET*        CLOUDY    36  30  79 W21G29    29.74R WCI  24
WAUKEGAN       CLOUDY    34  26  72 W14G39    29.59R WCI  25
DUPAGE AIRPORT CLOUDY    33  28  81 W23G38    29.68R WCI  21
KANKAKEE*      CLOUDY    35  30  82 W18       29.79R WCI  24
WHEELING       CLOUDY    35  28  75 W25G39    29.66R WCI  23
MORRIS*        CLOUDY    34  29  82 W22G29    29.74R WCI  23
ROMEOVILLE*    CLOUDY    34  29  84 W25G36    29.72R WCI  21
NORTHERLY ISL    N/A     36  28  73 SW17        N/A  WCI  26
$$

LMZ740>746-251100-
SOUTHERN LAKE MICHIGAN

STATION/POSITION SKY/WX   TEMP    WIND        PRES    VSBY  WAVE
                          AIR SEA DIR/SP/G                  HT/PER
                          (F)     (DEG/KT/KT) (MB)    (MI)  (FT/S)
HARRISON CRIB              36     260/ 35/ 41   N/A
BURNHAM HARBOR             35     270/ 17/ 25   N/A
CALUMET HARBOR             36     240/ 18/ 30 1004.1R
BURNS HARBOR               37     250/ 27/ 32 1005.8R
MICHIGAN CITY              36     230/ 38/ 43   N/A
$$

ILZ025>027-034>036-040-047-049-050-058-095>099-251100-
WEST-CENTRAL ILLINOIS

CITY           SKY/WX    TMP DP  RH WIND       PRES   REMARKS
QUINCY         CLEAR     32  28  85 W13       29.88R WCI  22
MACOMB*        CLOUDY   N/A N/A N/A W17       29.86R
JACKSONVILLE*  CLOUDY    34  29  83 SW14      29.89R WCI  24
PITTSFIELD*    CLEAR     34  30  86 W13G18    29.90R WCI  25
$$

ILZ028>032-037-038-041>044-048-051>054-059>061-251100-
CENTRAL ILLINOIS

CITY           SKY/WX    TMP DP  RH WIND       PRES   REMARKS
PONTIAC        CLOUDY    35  32  90 W25G31    29.80R WCI  22
BLOOMINGTON    CLOUDY    33  28  81 W22G29    29.83R WCI  21
DECATUR        FAIR      34  28  79 W16       29.87R WCI  24
PEORIA         CLOUDY    34  28  79 W16G29    29.83R WCI  24
LACON*         CLOUDY    34  28  80 W12G22    29.80R WCI  25
LINCOLN*       FAIR      34  30  86 W7G17     29.87R WCI  28
SPRINGFIELD    MOCLDY    34  29  82 W14       29.88R WCI  25
TAYLORVILLE    FAIR      33  29  86 W14       29.91R WCI  23
$$

ILZ033-039-045-046-055>057-062-063-251100-
EAST-CENTRAL ILLINOIS

CITY           SKY/WX    TMP DP  RH WIND       PRES   REMARKS
CHAMPAIGN      CLOUDY    35  31  85 W23G33    29.85R WCI  23
DANVILLE*      CLOUDY    37  31  81 W24G31    29.81R WCI  25
RANTOUL*       CLOUDY    37  32  83 W21G30    29.83R WCI  26
MATTOON        FAIR      36  31  82 W13G24    29.89R WCI  27
PARIS*         FAIR      37  32  85 W17G26    29.89R WCI  27
$$

ILZ079-100>102-251100-
SOUTHWEST ILLINOIS

CITY           SKY/WX    TMP DP  RH WIND       PRES   REMARKS
ALTON          CLEAR     34  33  97 W8        29.95R WCI  27
BELLEVILLE     FAIR      37  30  77 SW8       29.95R WCI  30
CAHOKIA*       FAIR      38  30  73 W10       29.96R WCI  31
SPARTA*        FAIR      39  34  84 W10       29.99R WCI  32
$$

ILZ064>066-069>071-074>076-080>082-084>086-088>090-092>094-251100-
SOUTH-CENTRAL ILLINOIS

CITY           SKY/WX    TMP DP  RH WIND       PRES   REMARKS
CARBONDALE     FAIR      42  35  76 NW7       29.98R
CAIRO*         FAIR      44  37  75 W10       30.00R
EFFINGHAM*     FAIR      37  32  81 SW15G25   29.95R WCI  28
MARION         FAIR      42  33  71 NW6       29.99R
MT. VERNON     FAIR      41  33  73 W10G18    29.97R
CENTRALIA*     MOCLDY    40  36  84 W7        29.95R
SALEM*         FAIR      40  33  77 W14       29.95R
METROPOLIS*    FAIR      46  37  71 W9        29.99S
$$

ILZ067-068-072-073-078-083-087-091-251100-
SOUTHEAST ILLINOIS

CITY           SKY/WX    TMP DP  RH WIND       PRES   REMARKS
LAWRENCEVILLE  FAIR      43  35  73 W16G28    29.93R
FLORA*         FAIR      41  32  71 W15G25    29.95R
FAIRFIELD*     FAIR      42  35  77 MISG      29.95R
HARRISBURG*    FAIR      43  37  79 W16       29.98R
ROBINSON*      MOCLDY    42  36  79 W13       29.92R
CARMI*         MOCLDY    44  38  79 W15G21    29.96R
$$

ABBREVIATIONS USED IN REMARKS
   TC - TEMPERATURE IN CELSIUS
  WCI - WIND CHILL INDEX
   HX - HEAT INDEX
  VSB - VISIBILITY
$$





USA.gov is the U.S. government's official web portal to all federal, state and local government web resources and services.